User: anonymous   Login
Location: Unspecified
(0.0000°N, 0.0000°E)
Time: 11:03:15
(UTC+00:00)
Language:

EDUSAT - Orbit

View from above orbital plane
View from above orbital plane
View from above satellite
View from above satellite

Ground track
Ground track

The orbit data is extracted from the following two-line orbital elements,

1 37788U 11044A   17351.85748045  .00000153  00000-0  33577-4 0  9999
2 37788  98.2692 113.2430 0037375 224.3924 292.8259 14.70771097339887
Epoch (UTC): 17 December 2017 20:34:46
Eccentricity: 0.0037375
inclination: 98.2692°
perigee height: 632 km
apogee height: 685 km
right ascension of ascending node: 113.2430°
argument of perigee: 224.3924°
revolutions per day: 14.70771097
mean anomaly at epoch: 292.8259°
orbit number at epoch: 33988

The dashed part of the orbit path shows where the satellite is in the earth's shadow,  

DLR